BEIJING 1

Last updated on Thu Oct 30 2025 00:02:38 GMT+0000 (Coordinated Universal Time)

1 28890U 05043A 25302.52868659 .00000582 00000+0 12208-3 0 9990 2 28890 98.2621 69.9420 0013459 284.7745 75.1965 14.63301687 66910
UTC large
Height (km)
Speed (km/s)
/
Latitude / Longitude
Inclination (degrees)
Orbital Period (minutes)
Azimuth
Elevation
Range (km)
Doppler Factor

Next 0 passes for location: London (51.5072 / 0.1276)

Sorry there are no passes over London.